Location: �terpigny
(49.8910°N, 2.9249°E)
Time: 04:36:08
(UTC+00:00)

Cosmos 614 Rocket - Pass Details

Date: 04 June 2022
Orbit: 732 x 764 km, 74.1° (Epoch: 05 July)

Event Time Altitude Azimuth Distance (km) Brightness Sun altitude
Rises 22:06:21 0° 343° (NNW) 3,223 9.1 -14.2°
Reaches altitude 10° 22:09:39 10° 4° (N) 2,300 7.5 -14.5°
Maximum altitude 22:12:54 16° 43° (NE) 1,896 6.3 -14.7°
Drops below altitude 10° 22:16:08 10° 82° (E) 2,301 6.3 -14.9°
Enters shadow 22:18:48 - 100° (E) 3,029 6.8 -15.0°
